Waarnemingen

Advertentie
Mijn weer
Freiburg, Duitsland (10803): temperatuur & dauwpunt: 16.11.2017 08:00:00 - 22.11.2017 08:00:00 (CET)Freiburg, Duitsland (10803): temperatuur 5cm & temperatuur -5cm: 16.11.2017 08:00:00 - 22.11.2017 08:00:00 (CET)Freiburg, Duitsland (10803): temperatuur -20cm & temperatuur -100cm: 16.11.2017 08:00:00 - 22.11.2017 08:00:00 (CET)Freiburg, Duitsland (10803): windsnelheid & windstoten: 16.11.2017 08:00:00 - 22.11.2017 08:00:00 (CET)Freiburg, Duitsland (10803): windrichting: 16.11.2017 08:00:00 - 22.11.2017 08:00:00 (CET)Freiburg, Duitsland (10803): luchtdruk: 16.11.2017 08:00:00 - 22.11.2017 08:00:00 (CET)Freiburg, Duitsland (10803): zicht: 16.11.2017 08:00:00 - 22.11.2017 08:00:00 (CET)Freiburg, Duitsland (10803): Zonneschijnduur: 16.11.2017 08:00:00 - 22.11.2017 08:00:00 (CET)Freiburg, Duitsland (10803): neerslag: 16.11.2017 08:00:00 - 22.11.2017 08:00:00 (CET)
Datum & Tijd tt [°C] td [°C] tt 5cm [°C] tt -5cm [°C] tt -20cm [°C] tt -100cm [°C] ff [km/u] ff [kn] fx [km/u] fx [kn] dd ppp [hPa] vv [km] sd [min] rr [mm]
22.11.2017 08:00:00 3,3 1,1 -0,4 2,7 5,5 9,5 0 0 10 5 N 1015,6 40 0 0,0
22.11.2017 07:00:00 4,7 2,3 1,9 3,3 5,7 9,5 5 3 17 9 NNO 1015,7 52 0 0,0
22.11.2017 06:00:00 9,2 3,5 4,8 3,8 5,8 9,5 12 7 19 10 Z 1015,4 70 0 0,0
22.11.2017 05:00:00 10,9 3,3 6,8 3,9 5,9 9,5 13 7 26 14 ZZW 1015,4 70 0 0,0
22.11.2017 04:00:00 7,9 3,2 2,3 4,0 6,0 9,5 8 4 16 9 ZW 1015,9 66 0 0,0
22.11.2017 03:00:00 8,4 3,5 4,9 4,4 6,1 9,5 10 5 21 11 ZZW 1016,2 66 0 0,0
22.11.2017 02:00:00 10,2 4,0 7,9 4,5 6,2 9,5 16 9 23 13 ZZW 1016,1 65 0 0,0
22.11.2017 01:00:00 10,1 4,0 5,4 4,4 6,4 9,5 10 6 13 7 Z 1016,4 70 0 0,0
22.11.2017 00:00:00 9,7 4,1 6,9 5,2 6,5 9,5 16 8 24 13 ZZW 1016,9 64 0 0,0
21.11.2017 23:00:00 11,5 4,1 8,1 5,6 6,5 9,5 12 7 31 17 ZZW 1016,7 70 0 0,0
21.11.2017 22:00:00 11,9 4,3 9,0 5,3 6,7 9,5 18 10 25 13 ZZW 1016,9 70 0 0,0
21.11.2017 21:00:00 8,1 3,7 3,8 5,4 6,8 9,5 9 5 23 12 Z 1017,8 61 0 0,0
21.11.2017 20:00:00 11,5 4,1 8,8 6,1 6,9 9,5 19 10 26 14 Z 1017,2 70 0 0,0
21.11.2017 19:00:00 11,9 4,2 9,3 6,6 7,0 9,5 18 10 29 15 ZZW 1017,5 70 0 0,0
21.11.2017 18:00:00 11,5 4,7 9,3 7,0 7,0 9,5 18 10 35 19 ZZW 1017,6 70 0 0,0
21.11.2017 17:00:00 12,1 4,7 10,2 7,7 7,0 9,6 25 13 43 23 ZZW 1017,7 70 0 0,0
21.11.2017 16:00:00 13,2 4,4 11,7 8,5 6,8 9,6 27 15 44 24 ZZW 1017,6 70 0 0,0
21.11.2017 15:00:00 12,9 4,9 12,0 9,3 6,5 9,6 25 13 43 23 ZZW 1017,8 70 24 0,0
21.11.2017 14:00:00 13,2 4,6 13,8 9,6 6,2 9,6 29 15 42 23 ZW 1017,7 35 60 0,0
21.11.2017 13:00:00 12,8 4,3 13,9 8,1 5,9 9,6 19 11 32 18 ZW 1018,6 70 10 0,0
21.11.2017 12:00:00 11,2 4,2 10,7 7,7 5,7 9,6 17 9 35 19 ZW 1019,3 70 2 0,0
21.11.2017 11:00:00 10,3 4,2 10,3 7,0 5,5 9,6 21 12 34 18 ZW 1019,9 70 0 0,0
21.11.2017 10:00:00 8,5 4,6 7,4 5,8 5,4 9,6 8 5 27 15 ZW 1020,3 70 0 0,0
21.11.2017 09:00:00 7,8 3,5 7,1 5,6 5,4 9,6 16 9 32 17 ZW 1020,5 67 0 0,0
21.11.2017 08:00:00 7,9 4,1 7,1 5,5 5,3 9,6 20 11 32 18 ZW 1020,1 70 0 0,0
21.11.2017 07:00:00 7,6 4,7 6,8 5,4 5,2 9,6 14 8 29 16 ZZW 1020,2 70 0 0,4
21.11.2017 06:00:00 7,0 5,1 6,0 5,3 5,1 9,6 18 10 37 20 ZZW 1020,7 8 0 0,5
21.11.2017 05:00:00 7,4 4,6 6,4 5,1 5,0 9,7 21 12 33 18 ZZW 1020,6 59 0 0,2
21.11.2017 04:00:00 6,9 4,4 5,9 4,8 5,0 9,7 14 8 21 12 ZW 1020,8 70 0 0,1
21.11.2017 03:00:00 6,3 4,1 5,7 4,7 4,9 9,7 14 7 19 10 ZZW 1020,7 48 0 0,3
21.11.2017 02:00:00 6,0 4,0 5,0 4,7 4,8 9,7 11 6 28 15 ZZW 1021,0 5 0 1,8
21.11.2017 01:00:00 7,4 2,5 5,7 4,7 4,7 9,7 18 10 31 17 W 1021,1 16 0 0,0
21.11.2017 00:00:00 7,2 3,2 5,3 4,6 4,7 9,7 16 9 34 18 ZZW 1020,9 55 0 0,1
20.11.2017 23:00:00 7,9 2,2 7,0 4,4 4,6 9,7 20 11 32 17 ZZW 1020,7 65 0 0,0
20.11.2017 22:00:00 7,2 1,8 6,1 4,2 4,5 9,7 24 13 40 22 ZZW 1020,6 52 0 0,0
20.11.2017 21:00:00 6,7 1,9 6,0 4,1 4,4 9,7 19 10 36 19 ZW 1021,6 36 0 0,0
20.11.2017 20:00:00 6,3 2,3 5,6 4,1 4,4 9,7 22 12 36 20 ZZW 1022,0 32 0 0,1
20.11.2017 19:00:00 6,1 2,3 4,9 3,9 4,3 9,7 22 12 35 19 ZZW 1021,9 27 0 0,0
20.11.2017 18:00:00 6,1 1,6 5,3 3,7 4,2 9,7 19 11 33 18 ZW 1022,3 31 0 0,0
20.11.2017 17:00:00 5,9 1,0 5,2 3,7 4,1 9,7 22 12 33 18 ZW 1022,4 40 0 0,0
20.11.2017 16:00:00 5,3 1,4 4,9 3,9 3,9 9,7 19 11 32 17 ZW 1023,2 27 0 0,0
20.11.2017 15:00:00 5,3 1,2 5,2 4,0 3,7 9,7 18 10 36 19 ZW 1023,4 28 0 0,0
20.11.2017 14:00:00 5,2 1,6 5,4 3,9 3,4 9,8 22 12 31 17 ZW 1023,3 29 0 0,0
20.11.2017 13:00:00 5,1 1,8 5,5 2,4 3,3 9,8 14 8 23 12 WZW 1024,3 26 0 0,0
20.11.2017 12:00:00 3,9 2,1 4,1 0,7 3,4 9,8 4 2 12 6 N 1025,6 16 3 0,0
20.11.2017 11:00:00 3,0 1,3 4,3 0,7 3,4 9,8 0 0 7 4 N 1025,7 13 18 0,0
20.11.2017 10:00:00 0,5 -0,2 0,1 0,7 3,5 9,8 3 2 8 4 NNO 1025,8 8 0 0,0
20.11.2017 09:00:00 -1,4 -1,8 -1,3 0,7 3,6 9,8 2 1 6 4 NNW 1026,1 6 0 0,0
20.11.2017 08:00:00 -2,2 -2,6 -2,9 0,7 3,7 9,8 6 3 6 4 NNW 1026,2 7 0 0,0
20.11.2017 07:00:00 -2,4 -3,0 -4,3 0,8 3,8 9,8 3 2 5 3 NNW 1026,2 8 0 0,0
20.11.2017 06:00:00 -1,6 -2,1 -3,8 0,9 3,9 9,8 0 0 5 3 NW 1026,0 6 0 0,0
20.11.2017 05:00:00 -1,2 -1,5 -1,3 0,9 4,1 9,8 0 0 9 5 N 1026,1 9 0 0,0
20.11.2017 04:00:00 -2,1 -2,6 -5,0 1,0 4,2 9,8 4 2 6 3 ZZO 1026,1 22 0 0,0
20.11.2017 03:00:00 -2,6 -2,9 -4,5 1,1 4,4 9,8 2 1 4 2 WZW 1026,7 0,7 0 0,0
20.11.2017 02:00:00 -2,2 -2,8 -5,1 1,2 4,6 9,8 2 1 5 3 Z 1027,0 1,6 0 0,0
20.11.2017 01:00:00 -1,9 -2,3 -4,0 1,3 4,8 9,8 0 0 6 3 N 1027,3 0,8 0 0,0
20.11.2017 00:00:00 0,0 -0,7 -3,0 1,4 5,1 9,8 4 2 11 6 NNW 1026,7 16 0 0,0
19.11.2017 23:00:00 0,9 -0,5 -2,1 1,6 5,3 9,8 8 4 14 7 Z 1026,5 19 0 0,0
19.11.2017 22:00:00 2,7 1,0 0,2 2,4 5,5 9,8 11 6 14 8 Z 1026,2 23 0 0,0
19.11.2017 21:00:00 3,8 1,4 1,7 3,3 5,7 9,8 8 5 20 11 Z 1025,7 24 0 0,0
19.11.2017 20:00:00 3,9 1,5 2,6 3,2 5,9 9,8 13 7 17 9 Z 1025,0 30 0 0,0
19.11.2017 19:00:00 3,4 0,5 1,4 3,7 6,1 9,8 9 5 18 10 Z 1024,6 33 0 0,0
19.11.2017 18:00:00 4,8 1,2 3,4 4,5 6,3 9,8 14 8 18 10 Z 1023,9 54 0 0,0
19.11.2017 17:00:00 4,6 0,9 1,7 5,4 6,3 9,9 7 4 15 8 ZZW 1023,2 47 0 0,0
19.11.2017 16:00:00 6,3 1,1 5,2 7,0 6,2 9,9 11 6 22 12 ZW 1022,6 65 53 0,0
19.11.2017 15:00:00 7,1 -0,7 8,0 7,6 6,0 9,9 11 6 23 12 WZW 1022,1 69 19 0,0
19.11.2017 14:00:00 7,0 1,3 7,5 7,9 5,6 9,9 11 6 21 12 W 1022,0 70 19 0,0
19.11.2017 13:00:00 7,4 2,8 10,2 8,5 5,2 9,9 10 5 18 10 ZW 1021,9 55 54 0,0
19.11.2017 12:00:00 6,0 3,1 7,2 6,2 5,0 9,9 15 8 23 12 ZW 1022,1 41 8 0,0
19.11.2017 11:00:00 5,3 3,1 5,8 5,3 4,9 9,9 14 8 25 13 ZZW 1021,9 37 8 0,0
19.11.2017 10:00:00 4,3 2,7 4,5 4,1 4,9 9,9 14 8 31 17 ZW 1021,6 24 1 0,0
19.11.2017 09:00:00 4,0 2,1 3,7 3,6 4,9 9,9 21 12 39 21 ZW 1021,0 30 0 0,0
19.11.2017 08:00:00 4,1 1,6 3,7 3,4 4,9 9,9 26 14 42 23 ZW 1020,4 39 0 0,0
19.11.2017 07:00:00 3,8 1,6 3,1 3,4 4,9 9,9 23 12 42 23 ZZW 1020,0 30 0 0,1
19.11.2017 06:00:00 3,5 1,6 2,8 3,3 5,0 9,9 26 14 44 24 ZZW 1019,9 16 0 0,9
19.11.2017 05:00:00 3,5 1,6 2,7 3,4 5,0 9,9 24 13 42 23 ZZW 1020,4 14 0 0,5
19.11.2017 04:00:00 3,6 1,5 2,7 3,4 5,1 9,9 22 12 43 23 ZZW 1020,7 12 0 0,8
19.11.2017 03:00:00 3,4 1,3 2,6 3,3 5,1 9,9 18 10 37 20 ZZW 1021,4 15 0 0,6
19.11.2017 02:00:00 3,4 1,2 2,6 3,4 5,2 9,9 21 11 35 19 ZZW 1021,9 12 0 0,9
19.11.2017 01:00:00 3,4 1,2 2,5 3,5 5,2 9,9 22 12 38 20 ZZW 1022,4 13 0 0,3
19.11.2017 00:00:00 4,4 0,4 2,9 3,5 5,3 9,9 24 13 40 22 ZZW 1022,8 20 0 0,1
18.11.2017 23:00:00 4,6 0,3 3,7 3,3 5,4 9,9 20 11 30 16 ZZW 1023,3 19 0 0,0
18.11.2017 22:00:00 4,3 0,0 3,0 3,2 5,6 9,9 16 8 24 13 Z 1023,9 26 0 0,0
18.11.2017 21:00:00 4,3 0,2 3,1 3,4 5,7 9,9 16 9 25 14 ZZW 1024,5 23 0 0,0
18.11.2017 20:00:00 4,7 0,0 3,9 3,7 5,9 10,0 16 8 25 13 ZZW 1024,4 25 0 0,0
18.11.2017 19:00:00 4,7 -0,1 3,9 3,8 6,0 10,0 14 8 28 15 ZW 1024,4 28 0 0,0
18.11.2017 18:00:00 5,1 0,1 4,1 4,4 6,2 10,0 18 10 27 15 ZZW 1024,5 29 0 0,0
18.11.2017 17:00:00 5,0 0,8 4,0 4,8 6,2 10,0 14 8 29 16 ZW 1024,4 32 0 0,0
18.11.2017 16:00:00 5,8 0,9 5,2 6,3 6,2 10,0 23 12 32 17 ZW 1024,2 42 40 0,0
18.11.2017 15:00:00 6,0 1,3 6,3 6,5 6,1 10,0 17 9 23 13 ZW 1024,4 43 0 0,0
18.11.2017 14:00:00 6,1 3,3 6,6 7,0 5,9 10,0 10 6 19 11 ZW 1024,5 14 0 0,0
18.11.2017 13:00:00 6,2 2,6 7,2 6,9 5,7 10,0 8 4 14 7 ZZW 1025,0 21 1 0,0
18.11.2017 12:00:00 5,6 4,1 6,3 6,3 5,6 10,0 6 4 9 5 ZW 1025,5 7 0 0,0
18.11.2017 11:00:00 5,1 3,9 5,4 5,5 5,5 10,0 4 2 7 4 WNW 1025,8 8 0 0,0
18.11.2017 10:00:00 4,8 3,9 4,9 5,1 5,5 10,0 1 1 5 3 W 1025,6 6 0 0,0
18.11.2017 09:00:00 4,5 3,9 4,6 4,8 5,5 10,0 3 1 5 3 NNW 1025,6 6 0 0,0
18.11.2017 08:00:00 4,3 3,9 4,4 4,6 5,4 10,0 3 1 6 3 NW 1025,6 3,8 0 0,0
18.11.2017 07:00:00 4,3 3,9 4,2 4,6 5,4 10,1 4 2 5 3 NNW 1025,5 3,4 0 0,0
18.11.2017 06:00:00 4,3 4,0 4,3 4,6 5,4 10,1 0 0 6 3 N 1025,4 3,3 0 0,0
18.11.2017 05:00:00 4,2 3,9 4,3 4,6 5,4 10,1 4 2 6 3 NNW 1025,7 2,0 0 0,0
18.11.2017 04:00:00 4,2 3,9 4,3 4,6 5,4 10,1 3 2 5 3 WNW 1025,6 2,2 0 0,1
18.11.2017 03:00:00 4,2 3,8 4,3 4,6 5,4 10,1 2 1 8 4 N 1026,0 2,2 0 0,0
18.11.2017 02:00:00 4,4 3,6 4,4 4,6 5,4 10,1 6 3 11 6 NW 1025,9 6 0 0,0
18.11.2017 01:00:00 4,4 4,0 4,4 4,6 5,4 10,1 6 3 8 4 ZO 1025,9 2,6 0 0,0
18.11.2017 00:00:00 4,0 3,5 4,2 4,6 5,5 10,1 6 3 8 4 NW 1026,6 3,2 0 0,0
17.11.2017 23:00:00 4,0 3,4 4,1 4,7 5,5 10,1 3 2 5 3 WZW 1026,5 4,8 0 0,0
17.11.2017 22:00:00 3,9 3,2 4,1 4,7 5,5 10,2 3 2 6 3 N 1026,8 5 0 0,0
17.11.2017 21:00:00 4,0 3,2 4,1 4,7 5,5 10,2 2 1 11 6 N 1026,7 5 0 0,0
17.11.2017 20:00:00 4,0 3,2 4,1 4,8 5,6 10,2 8 5 12 6 NW 1026,8 4,8 0 0,0
17.11.2017 19:00:00 4,1 3,0 4,1 4,9 5,6 10,2 4 2 9 5 N 1026,5 5 0 0,0
17.11.2017 18:00:00 4,2 2,9 4,2 5,3 5,6 10,2 6 4 12 7 NNW 1026,7 6 0 0,0
17.11.2017 17:00:00 4,4 2,8 4,6 5,8 5,5 10,2 9 5 14 8 NNW 1026,6 7 0 0,0
17.11.2017 16:00:00 5,3 2,7 5,7 6,8 5,3 10,2 10 6 14 7 NW 1026,2 9 0 0,0
17.11.2017 15:00:00 5,7 2,4 7,2 7,2 5,0 10,2 8 4 13 7 NW 1026,3 11 16 0,0
17.11.2017 14:00:00 5,6 2,0 7,5 6,9 4,7 10,3 8 4 12 7 NNW 1026,6 12 0 0,0
17.11.2017 13:00:00 5,0 1,1 7,3 6,9 4,3 10,3 8 4 14 7 N 1027,2 12 0 0,0
17.11.2017 12:00:00 4,9 0,9 8,1 5,8 4,0 10,3 5 3 10 5 NNO 1027,4 11 0 0,0
17.11.2017 11:00:00 3,3 0,3 4,8 4,3 3,8 10,3 5 3 8 5 NW 1027,9 11 0 0,0
17.11.2017 10:00:00 2,5 0,3 4,0 3,2 3,7 10,3 4 2 8 4 N 1028,0 14 0 0,0
17.11.2017 09:00:00 1,7 0,1 2,3 2,3 3,7 10,3 5 3 7 4 NNW 1028,2 11 0 0,0
17.11.2017 08:00:00 1,2 -0,2 1,5 1,9 3,7 10,3 3 2 6 3 NW 1028,0 10 0 0,0
17.11.2017 07:00:00 0,6 -0,5 0,3 1,7 3,7 10,3 5 3 7 4 NNW 1028,0 7 0 0,0
17.11.2017 06:00:00 0,7 -0,2 0,7 1,7 3,7 10,4 0 0 6 3 N 1027,6 8 0 0,0
17.11.2017 05:00:00 0,4 -0,5 0,4 1,5 3,8 10,4 2 1 5 3 Z 1027,6 9 0 0,0
17.11.2017 04:00:00 0,1 -0,8 0,0 1,4 3,9 10,4 5 3 7 4 N 1027,6 8 0 0,0
17.11.2017 03:00:00 0,0 -0,8 -0,6 1,5 3,9 10,4 0 0 4 2 N 1027,7 8 0 0,0
17.11.2017 02:00:00 -0,3 -1,2 -0,6 1,4 4,0 10,4 0 0 6 3 N 1028,2 9 0 0,0
17.11.2017 01:00:00 0,7 -0,9 -0,2 1,7 4,1 10,4 4 2 7 4 NNO 1027,8 11 0 0,0
17.11.2017 00:00:00 0,8 -0,8 0,2 1,8 4,2 10,4 3 2 6 3 N 1027,7 11 0 0,0
16.11.2017 23:00:00 0,4 -1,2 -0,6 2,0 4,2 10,5 4 2 14 7 W 1027,9 13 0 0,0
16.11.2017 22:00:00 1,3 -1,1 1,2 2,5 4,3 10,5 10 5 14 8 ZO 1027,6 14 0 0,0
16.11.2017 21:00:00 1,6 -0,8 1,7 2,6 4,3 10,5 4 2 8 4 ZZO 1027,7 11 0 0,0
16.11.2017 20:00:00 1,4 -0,9 1,5 2,7 4,3 10,5 5 3 6 4 W 1027,2 11 0 0,0
16.11.2017 19:00:00 1,6 -0,6 1,6 2,7 4,4 10,5 2 1 6 4 NW 1026,7 12 0 0,0
16.11.2017 18:00:00 1,5 -0,4 1,5 2,8 4,4 10,5 4 2 6 3 WNW 1026,7 11 0 0,0
16.11.2017 17:00:00 1,5 -0,7 1,7 3,0 4,4 10,5 3 1 6 4 NNW 1026,5 11 0 0,0
16.11.2017 16:00:00 1,5 -0,9 2,1 3,3 4,3 10,5 4 2 9 5 NW 1026,2 11 0 0,0
16.11.2017 15:00:00 1,3 -1,1 1,9 3,3 4,2 10,6 8 4 11 6 NW 1026,1 11 0 0,0
16.11.2017 14:00:00 1,4 -0,8 2,1 3,5 4,1 10,6 4 2 8 5 NNO 1026,3 11 0 0,0
16.11.2017 13:00:00 1,2 -0,7 2,5 3,4 4,1 10,6 7 4 9 5 NNW 1026,5 10 0 0,0
16.11.2017 12:00:00 1,0 -0,5 2,1 3,0 4,0 10,6 5 3 7 4 NNW 1026,6 10 0 0,0
16.11.2017 11:00:00 0,7 -1,0 1,4 2,6 4,0 10,6 5 3 7 4 NW 1026,9 10 0 0,0
16.11.2017 10:00:00 0,5 -0,8 1,1 2,3 3,9 10,6 4 2 6 3 N 1026,7 9 0 0,0
16.11.2017 09:00:00 0,5 -0,9 0,5 2,0 4,0 10,6 0 0 8 5 N 1026,4 11 0 0,0
16.11.2017 08:00:00 0,1 -1,1 0,3 2,0 4,0 10,7 4 2 5 3 NW 1026,2 10 0 0,0

tt = temperatuur
td = dauwpunt
tt 5cm = temperatuur 5cm
tt -5cm = temperatuur -5cm
tt -20cm = temperatuur -20cm
tt -100cm = temperatuur -100cm
ff = windsnelheid
fx = windstoten
dd = windrichting
ppp = luchtdruk
vv = zicht
sd = Zonneschijnduur
rr = neerslag

Weerstations in de omgeving

  • TOP-25 (most viewed):